[[{"header":{"parameterUnit":"m.s-1","parameterCategory":1,"la1":30.2991,"la2":30.254,"lo1":-89.0895,"lo2":-89.0444,"dy":0.0017,"dx":0.0017,"nx":28,"ny":28,"refTime":"2023-09-12T21:00:00:Z","depth":0,"parameterNumber":2,"parameterNumberName":"U-component_of_WINDS"},"data":[0,0,0,0,0,0,0,0,0,0,0,0,0,0,0,0,0,0,0,0,0,0,0,0,0,0,0,0,0,0,0,0,0,0,0,0,0,0,0,0,0,0,0,0,0,0,0,0,0,0,0,0,0,0,0,0,0,0,2.7373,2.7376,0,2.7564,2.7566,2.7569,2.7604,2.7602,2.7601,2.7599,2.7794,2.7801,2.7807,0,0,0,0,0,0,0,0,0,0,0,0,0,2.7041,2.7046,2.7373,2.7376,2.7378,2.7564,2.7567,2.7569,2.7604,2.7602,2.76,2.7599,2.7792,2.78,2.7808,0,0,0,0,0,0,0,0,0,0,0,0,0,2.7204,2.7048,2.7373,2.7418,2.7424,2.7563,2.7567,2.757,2.7605,2.7602,2.76,2.7598,2.779,2.7799,2.7809,2.7917,0,0,2.784,2.7844,0,0,0,0,0,0,0,0,2.7194,2.7216,2.7409,2.7415,2.7422,2.7558,2.7521,2.7686,2.7605,2.7536,2.7599,2.7597,2.7718,2.7733,2.7774,2.7926,2.7935,2.784,2.7846,2.7851,2.7854,0,0,0,0,0,0,0,2.7183,2.7208,2.7449,2.7412,2.742,2.7429,2.745,2.7552,2.7637,2.7542,2.7545,2.7567,2.7721,2.7765,2.7779,2.7937,2.784,2.7849,2.7855,2.7859,2.819,2.8192,0,0,0,0,0,0,2.7164,2.7198,2.7443,2.7455,2.73,2.7437,2.746,2.7517,2.7636,2.7652,2.7569,2.7568,2.7749,2.7767,2.7786,2.7921,2.7851,2.786,2.7866,2.8187,2.819,2.8193,0,0,0,0,0,0,2.7156,2.7185,2.7435,2.7327,2.736,2.7445,2.7508,2.7522,2.7565,2.7657,2.7672,2.7598,2.7748,2.7772,2.7885,2.7928,2.7864,2.7874,2.8183,2.8188,2.8192,2.819,0,0,0,0,0,0,2.7147,2.7182,2.7223,2.7328,2.7365,2.753,2.7511,2.7527,2.7583,2.7583,2.7688,2.7703,2.7748,2.787,2.7894,2.794,2.7881,2.818,2.8185,2.819,2.8186,2.8194,2.82,0,0,0,0,0,2.7135,2.7215,2.7225,2.7254,2.7419,2.7532,2.7554,2.7603,2.7586,2.7628,2.7688,2.77,2.792,2.7881,2.7909,2.7959,2.8177,2.8184,2.819,2.8183,2.8192,2.8199,0,0,0,0,0,0,2.7112,2.7229,2.7242,2.7358,2.7435,2.7538,2.7592,2.7611,2.7693,2.769,2.7749,2.7772,2.7882,2.7932,2.7887,2.807,2.8047,2.806,2.8033,2.8042,2.8048,2.8033,2.789,0,0,0,0,0,2.7121,2.7203,2.7301,2.7394,2.7432,2.7506,2.7557,2.7589,2.7671,2.7703,2.7771,2.785,2.7937,2.7993,2.8078,2.8195,2.8219,2.8244,2.825,2.8255,2.8264,2.8331,2.8343,2.8214,2.8214,2.8214,0,0,2.7139,2.7213,2.7261,2.7392,2.7455,2.7539,2.7533,2.7622,2.7685,2.7717,2.7827,2.788,2.7972,2.8088,2.8142,2.8133,2.8306,2.8263,2.8266,2.8273,2.8339,2.8351,2.8362,2.8218,2.8217,2.8217,0,0,2.7215,2.728,2.7365,2.7429,2.7525,2.7574,2.7595,2.7696,2.7732,2.7844,2.7871,2.7947,2.8096,2.8161,2.8213,2.8318,2.8332,2.8344,2.8377,2.8442,2.8452,2.8461,2.8498,2.8511,2.8354,2.8354,2.8354,0,2.7225,2.7352,2.7406,2.7495,2.7551,2.7586,2.7673,2.7733,2.7852,2.7891,2.788,2.8068,2.8133,2.8264,2.829,2.8332,2.8357,2.8331,2.8446,2.8456,2.8466,2.8501,2.8515,2.8354,2.8354,2.8354,2.8354,0,2.736,2.7449,2.7506,2.7621,2.7685,2.7772,2.784,2.7898,2.7926,2.7977,2.8091,2.8171,2.8273,2.8307,2.8334,2.8444,2.8435,2.8435,2.8412,2.8478,2.8512,2.8526,2.8355,2.8355,2.8355,2.8355,0,0,2.7423,2.7569,2.7589,2.7642,2.7753,2.7823,2.7913,2.8014,2.8063,2.8145,2.8222,2.8349,2.835,2.8409,2.8445,2.8502,2.858,2.8495,2.8498,2.8506,2.8705,2.8703,2.8718,2.8591,2.8594,2.8597,2.8697,0,2.7511,2.7672,2.7725,2.7859,2.7941,2.7978,2.8056,2.8133,2.8184,2.8262,2.8319,2.8407,2.8402,2.8438,2.8497,2.8557,2.862,2.8552,2.8663,2.8666,2.8636,2.8736,2.8734,2.8824,2.871,2.8713,2.8715,0,2.7634,2.7719,2.7861,2.7964,2.8001,2.807,2.8168,2.8242,2.8331,2.8364,2.8432,2.8464,2.8561,2.8535,2.8669,2.8621,2.8671,2.8708,2.8713,2.8723,2.8692,2.8747,2.8854,2.8867,2.8737,2.8735,2.8733,0,2.7664,2.7815,2.792,2.7965,2.8087,2.8135,2.8188,2.8275,2.8333,2.8419,2.8457,2.8553,2.8605,2.8679,2.8737,2.8713,2.8866,2.8845,2.8896,2.8894,2.8923,2.892,2.9038,2.8959,2.8959,2.8958,2.8958,0,2.7755,2.7841,2.7935,2.7999,2.8097,2.8158,2.8253,2.8308,2.8386,2.8462,2.85,2.8571,2.8644,2.8725,2.8771,2.8874,2.8898,2.8928,2.8938,2.8923,2.8919,2.8954,2.8948,2.8962,2.8961,2.896,2.896,0,2.7804,2.787,2.7987,2.8095,2.8124,2.8191,2.8283,2.8347,2.8401,2.8497,2.8523,2.8608,2.8705,2.8771,2.8895,2.8927,2.9039,2.9049,2.9008,2.9013,2.906,2.9054,2.9202,2.9224,2.9132,2.9133,2.9133,0,2.7856,2.7923,2.8038,2.8092,2.8146,2.8233,2.8293,2.8357,2.8418,2.8526,2.8577,2.8677,2.876,2.8915,2.8987,2.9083,2.9095,2.9141,2.9109,2.9092,2.9094,2.9088,2.9095,2.9144,2.9145,2.9146,2.9146,0,2.7942,2.7973,2.8057,2.8155,2.8226,2.8306,2.8385,2.8428,2.8506,2.8573,2.8673,2.8738,2.8866,2.8965,2.9069,2.9124,2.9148,2.9156,2.9173,2.9156,2.9129,2.9143,2.902,2.9151,2.9151,2.915,2.915,2.915,2.7993,2.8055,2.8146,2.824,2.8308,2.8382,2.8448,2.8512,2.8596,2.8706,2.8739,2.8844,2.8934,2.9075,2.9133,2.9216,2.9211,2.9235,2.9241,2.9246,2.9245,2.9118,2.9235,2.9235,2.9235,2.9235,2.9235,0,2.808,2.8141,2.8228,2.8339,2.8413,2.8432,2.8522,2.8583,2.8674,2.8757,2.8838,2.8955,2.9052,2.9133,2.9234,2.9285,2.9298,2.9309,2.9304,2.9317,2.9243,2.9218,2.9296,2.9296,2.9296,2.9296,2.9296,2.9296,2.8133,2.8239,2.8281,2.842,2.8482,2.8584,2.8634,2.8704,2.877,2.8898,2.8979,2.9032,2.9115,2.9222,2.9312,2.9334,2.9369,2.9376,2.94,2.9329,2.9322,2.9315,2.9292,2.9384,2.9384,2.9467,2.9467,2.9468]},{"header":{"parameterUnit":"m.s-1","parameterCategory":1,"la1":30.2991,"la2":30.254,"lo1":-89.0895,"lo2":-89.0444,"dy":0.0017,"dx":0.0017,"nx":28,"ny":28,"refTime":"2023-09-12T21:00:00:Z","depth":0,"parameterNumber":3,"parameterNumberName":"V-component_of_WINDS"},"data":[0,0,0,0,0,0,0,0,0,0,0,0,0,0,0,0,0,0,0,0,0,0,0,0,0,0,0,0,0,0,0,0,0,0,0,0,0,0,0,0,0,0,0,0,0,0,0,0,0,0,0,0,0,0,0,0,0,0,1.4488,1.4491,0,1.4738,1.4741,1.4744,1.4796,1.4794,1.4792,1.4791,1.5051,1.5059,1.5068,0,0,0,0,0,0,0,0,0,0,0,0,0,1.4056,1.4063,1.4488,1.4491,1.4494,1.4738,1.4741,1.4745,1.4796,1.4794,1.4792,1.479,1.5048,1.5058,1.5069,0,0,0,0,0,0,0,0,0,0,0,0,0,1.4268,1.4066,1.4487,1.4549,1.4557,1.4737,1.4741,1.4746,1.4797,1.4794,1.4791,1.4789,1.5045,1.5057,1.507,1.5207,0,0,1.511,1.5116,0,0,0,0,0,0,0,0,1.4256,1.4284,1.4537,1.4545,1.4555,1.4733,1.4684,1.4901,1.4798,1.4706,1.479,1.4787,1.4948,1.4968,1.5022,1.5219,1.5231,1.5111,1.5119,1.5125,1.5128,0,0,0,0,0,0,0,1.4241,1.4274,1.4587,1.4541,1.4551,1.4565,1.4592,1.4726,1.484,1.4714,1.4718,1.4747,1.4952,1.5009,1.5028,1.5235,1.5111,1.5122,1.513,1.5135,1.5553,1.5556,0,0,0,0,0,0,1.4215,1.4261,1.4579,1.4595,1.4395,1.4575,1.4605,1.4679,1.4838,1.486,1.4749,1.4748,1.4988,1.5013,1.5038,1.5207,1.5125,1.5137,1.5144,1.555,1.5554,1.5557,0,0,0,0,0,0,1.4206,1.4243,1.4569,1.4429,1.4472,1.4585,1.4667,1.4685,1.4742,1.4865,1.4886,1.4786,1.4987,1.5019,1.5164,1.5217,1.5143,1.5154,1.5546,1.5551,1.5556,1.5547,0,0,0,0,0,0,1.4193,1.424,1.4293,1.443,1.4479,1.4691,1.4671,1.4692,1.4764,1.4766,1.4906,1.4926,1.4987,1.5144,1.5176,1.5233,1.5165,1.5542,1.5548,1.5554,1.5543,1.5551,1.5558,0,0,0,0,0,1.4178,1.4283,1.4296,1.4334,1.4548,1.4694,1.4722,1.4789,1.4768,1.4823,1.4901,1.4922,1.5205,1.5158,1.5195,1.5257,1.5539,1.5546,1.5554,1.554,1.555,1.5558,0,0,0,0,0,0,1.4153,1.4302,1.4318,1.447,1.4568,1.4702,1.4774,1.4798,1.4905,1.4902,1.4982,1.5013,1.5152,1.5219,1.5164,1.5396,1.5371,1.5386,1.5348,1.5358,1.5365,1.5347,1.5175,0,0,0,0,0,1.4164,1.4269,1.4394,1.4517,1.4565,1.466,1.4726,1.4769,1.4875,1.4917,1.5006,1.5108,1.522,1.5292,1.5402,1.5552,1.5582,1.5612,1.5619,1.5625,1.5638,1.5719,1.5733,1.5581,1.5581,1.5581,0,0,1.4191,1.4285,1.4347,1.4514,1.4595,1.4702,1.4695,1.481,1.489,1.4935,1.5076,1.5144,1.5263,1.541,1.5479,1.547,1.5686,1.5634,1.5638,1.5648,1.5728,1.5742,1.5755,1.5586,1.5586,1.5585,0,0,1.4293,1.4375,1.4485,1.4565,1.4686,1.4748,1.4774,1.4903,1.495,1.5092,1.5126,1.5222,1.5414,1.5497,1.5564,1.569,1.5713,1.5724,1.5763,1.5842,1.5854,1.5865,1.5909,1.5924,1.5736,1.5736,1.5736,0,1.4311,1.4473,1.4539,1.465,1.4722,1.4763,1.4874,1.4949,1.5101,1.515,1.5136,1.5374,1.5458,1.5623,1.5653,1.5706,1.5738,1.571,1.5846,1.5858,1.5869,1.5913,1.5929,1.5736,1.5736,1.5736,1.5736,0,1.4489,1.46,1.4674,1.4816,1.4896,1.5006,1.5088,1.516,1.5194,1.5257,1.5399,1.5499,1.5629,1.567,1.5706,1.584,1.583,1.583,1.5807,1.5883,1.5925,1.5942,1.5737,1.5737,1.5737,1.5737,0,0,1.4588,1.476,1.4786,1.485,1.4984,1.5072,1.5183,1.5307,1.5367,1.5468,1.5563,1.5721,1.5721,1.5797,1.5841,1.5909,1.6001,1.5902,1.5905,1.5916,1.6153,1.6152,1.6171,1.6015,1.6019,1.6022,1.6143,0,1.4706,1.4906,1.4965,1.5132,1.5235,1.5273,1.5369,1.5462,1.5522,1.5617,1.5684,1.5794,1.5786,1.5832,1.5901,1.5975,1.605,1.5967,1.6105,1.6109,1.6075,1.6193,1.6194,1.6304,1.6159,1.6162,1.6164,0,1.4874,1.4975,1.5151,1.5269,1.5314,1.54,1.5516,1.5607,1.5711,1.575,1.5831,1.5868,1.5984,1.5952,1.6112,1.6054,1.6113,1.6157,1.6163,1.6181,1.6143,1.6214,1.6341,1.6357,1.6191,1.6189,1.6187,0,1.4927,1.5108,1.5236,1.5289,1.543,1.5488,1.555,1.5651,1.572,1.5821,1.5867,1.5981,1.6044,1.613,1.6197,1.6167,1.6351,1.6324,1.6386,1.6384,1.6426,1.6423,1.6565,1.6461,1.6461,1.6461,1.646,0,1.5055,1.5162,1.5261,1.5341,1.546,1.5526,1.5642,1.5705,1.5794,1.5885,1.5925,1.601,1.6091,1.6187,1.6239,1.6363,1.6391,1.6425,1.6438,1.6423,1.6419,1.6465,1.6459,1.6465,1.6464,1.6463,1.6462,0,1.5137,1.5208,1.535,1.5469,1.5501,1.5584,1.5686,1.5764,1.5822,1.5937,1.5968,1.6062,1.6175,1.6249,1.6395,1.643,1.6565,1.6575,1.653,1.6536,1.6594,1.6587,1.6772,1.6799,1.6676,1.6677,1.6678,0,1.5215,1.5297,1.5423,1.5486,1.5547,1.5648,1.5718,1.5784,1.5855,1.5977,1.6039,1.6155,1.6252,1.6431,1.6512,1.6623,1.6637,1.6693,1.6654,1.6635,1.6638,1.6633,1.6641,1.6701,1.6702,1.6702,1.6703,0,1.5345,1.5374,1.5473,1.5582,1.5663,1.5754,1.5844,1.5893,1.5974,1.6052,1.6167,1.6241,1.6387,1.6501,1.6618,1.6681,1.6706,1.6714,1.6734,1.6721,1.669,1.6707,1.6548,1.671,1.671,1.6709,1.6709,1.6708,1.5428,1.5501,1.56,1.5708,1.5781,1.5863,1.5941,1.6007,1.6104,1.6228,1.626,1.638,1.6478,1.6637,1.6702,1.6796,1.679,1.6819,1.6827,1.6834,1.6834,1.6673,1.6818,1.6818,1.6818,1.6817,1.6817,0,1.556,1.5624,1.5722,1.5844,1.5928,1.594,1.6039,1.6108,1.6213,1.6301,1.6394,1.6524,1.6634,1.6721,1.6833,1.6891,1.6905,1.6919,1.6916,1.693,1.6834,1.6805,1.6906,1.6906,1.6905,1.6905,1.6905,1.6905,1.5639,1.5763,1.5804,1.5964,1.6028,1.6144,1.6199,1.6274,1.6345,1.6489,1.6579,1.6633,1.6721,1.6839,1.6939,1.6962,1.7001,1.7013,1.7038,1.6947,1.6937,1.6928,1.6901,1.702,1.7021,1.7126,1.7127,1.7128]}]]